CW6151 Weather Reports


time (UTC)temp
F
wind
direction
speed
knots
gust
knots
rain 1hr
in
rain 24hr
in
rain mn
in
humidity
%
barometer
mb
20260507115037 51 286 0.0 6.1 0.00 0.21 0.01 76 1004.2
20260507114536 50 292 0.9 7.0 0.00 0.21 0.01 78 1004.2
20260507114036 50 298 2.6 7.0 0.00 0.21 0.01 79 1004.2
20260507113536 50 295 2.6 5.2 0.00 0.21 0.01 79 1003.8
20260507113036 50 303 0.0 7.8 0.00 0.21 0.01 80 1003.8
20260507112536 50 256 0.9 7.8 0.00 0.21 0.01 80 1003.8
20260507112034 49 306 1.7 5.2 0.00 0.21 0.01 81 1004.1
20260507111535 49 328 0.0 4.3 0.00 0.21 0.01 81 1004.1
20260507111034 49 329 0.0 4.3 0.00 0.21 0.01 81 1004.1
20260507110534 49 269 0.0 1.7 0.00 0.21 0.01 81 1003.9
20260507110034 49 267 0.0 6.1 0.00 0.21 0.01 81 1003.9
20260507105533 49 313 1.7 6.1 0.01 0.21 0.01 82 1003.9
20260507105033 49 330 0.0 0.0 0.01 0.21 0.01 82 1003.6
20260507104536 49 330 0.0 4.3 0.01 0.21 0.01 82 1003.6
20260507104032 49 330 0.9 4.3 0.01 0.21 0.01 82 1003.6
20260507103531 49 302 0.0 7.0 0.01 0.21 0.01 82 1003.5
20260507103032 49 306 2.6 7.0 0.01 0.21 0.01 82 1003.5
20260507102531 49 329 1.7 7.0 0.01 0.21 0.01 82 1003.5
20260507102033 49 280 1.7 7.0 0.01 0.21 0.01 82 1003.3
20260507101529 49 331 0.9 6.1 0.01 0.21 0.01 82 1003.3
20260507101028 49 334 0.0 3.5 0.01 0.21 0.01 83 1003.3
20260507100528 49 292 0.9 3.5 0.01 0.21 0.01 83 1003.8
20260507100036 49 283 0.9 4.3 0.01 0.21 0.01 82 1003.8
20260507095530 49 286 1.7 6.1 0.00 0.20 0.00 82 1003.8
20260507095027 49 297 1.7 5.2 0.00 0.20 0.00 83 1003.5
20260507094525 49 270 0.9 5.2 0.00 0.20 0.00 83 1003.5
20260507094026 49 320 0.9 5.2 0.00 0.20 0.00 83 1003.5
20260507093525 49 238 0.0 6.1 0.00 0.20 0.00 83 1003.7
20260507093024 49 250 0.0 6.1 0.00 0.20 0.00 83 1003.7
20260507092524 49 272 1.7 5.2 0.00 0.20 0.00 82 1003.7
20260507092027 50 250 0.0 5.2 0.00 0.20 0.00 83 1003.6
20260507091528 50 228 0.0 7.8 0.00 0.20 0.00 83 1003.6
20260507091023 50 332 1.7 7.0 0.00 0.20 0.00 83 1003.6
20260507090526 50 282 0.0 5.2 0.00 0.20 0.00 82 1003.2
20260507090022 50 228 0.0 3.5 0.00 0.20 0.00 82 1003.2
20260507085522 49 229 0.0 5.2 0.00 0.20 0.00 83 1003.2
20260507085022 49 320 0.0 5.2 0.00 0.20 0.00 83 1003.2
20260507084521 50 281 1.7 5.2 0.00 0.20 0.00 84 1003.2
20260507084023 50 226 1.7 5.2 0.00 0.20 0.00 84 1003.2
20260507083519 50 323 0.9 7.0 0.00 0.20 0.00 84 1003.1
20260507083019 50 278 0.9 7.0 0.00 0.20 0.00 84 1003.1
20260507082517 50 296 0.0 5.2 0.00 0.20 0.00 84 1003.1
20260507082016 50 279 0.0 5.2 0.00 0.20 0.00 84 1003.3
20260507081516 50 258 0.9 4.3 0.00 0.20 0.00 84 1003.3
20260507081016 51 252 0.9 6.1 0.00 0.20 0.00 83 1003.3
20260507080516 51 278 1.7 7.8 0.00 0.20 0.00 82 1003.0
20260507080014 51 283 1.7 9.6 0.00 0.20 0.00 81 1003.0
20260507075514 51 273 0.0 9.6 0.00 0.20 0.00 81 1003.0
20260507075013 51 304 4.3 7.8 0.00 0.20 0.00 81 1002.9
20260507074513 51 321 2.6 10.4 0.00 0.20 0.00 81 1002.9
20260507074014 51 275 3.5 10.4 0.00 0.20 0.00 81 1002.9
20260507073511 51 288 1.7 7.0 0.00 0.20 0.00 81 1002.7
20260507073011 51 282 1.7 7.0 0.00 0.20 0.00 81 1002.7
20260507072510 52 295 2.6 7.0 0.00 0.20 0.00 81 1002.7
20260507072009 52 287 0.0 7.0 0.00 0.20 0.00 82 1002.7
20260507071511 52 253 2.6 7.0 0.00 0.20 0.00 83 1002.7
20260507071011 52 313 3.5 7.0 0.00 0.20 0.00 84 1002.7
20260507070507 52 235 1.7 7.0 0.00 0.20 0.00 85 1002.6
20260507070010 52 264 1.7 7.0 0.00 0.20 0.00 85 1002.6
20260507065505 52 219 0.0 3.5 0.00 0.20 0.00 86 1002.6
20260507065006 52 263 0.0 7.0 0.00 0.20 0.00 87 1002.4
20260507064504 53 292 1.7 7.0 0.00 0.20 0.00 87 1002.4
20260507064004 53 252 0.9 3.5 0.00 0.20 0.00 87 1002.4
20260507063504 53 269 0.0 0.0 0.00 0.20 0.00 87 1002.3
20260507063004 53 269 0.0 3.5 0.00 0.20 0.00 87 1002.3
20260507062503 53 269 0.9 3.5 0.00 0.20 0.00 87 1002.3
20260507062003 53 260 0.9 3.5 0.00 0.20 0.00 87 1002.2
20260507061503 53 259 0.0 4.3 0.00 0.20 0.00 87 1002.2
20260507061005 53 288 0.0 4.3 0.00 0.20 0.00 86 1002.2
20260507060501 53 315 0.0 5.2 0.00 0.20 0.00 86 1002.6
20260507060001 53 259 0.0 8.7 0.00 0.20 0.00 86 1002.6
20260507055502 53 265 0.0 4.3 0.00 0.20 0.00 87 1002.6
20260507055001 53 263 0.9 4.3 0.00 0.20 0.00 87 1002.4
20260507054608 53 242 0.0 4.3 0.00 0.20 0.00 87 1002.4
20260507054059 53 242 0.0 5.2 0.00 0.20 0.00 87 1002.4
20260507053600 53 270 0.0 5.2 0.00 0.20 0.00 87 1002.7
20260507053110 53 276 0.0 4.3 0.00 0.20 0.00 87 1002.7
20260507052558 54 265 0.9 4.3 0.00 0.20 0.00 87 1002.7
20260507052058 54 292 0.0 6.1 0.00 0.20 0.00 87 1002.8
20260507051607 54 267 0.9 6.1 0.00 0.20 0.00 87 1002.8
20260507051056 54 265 0.0 9.6 0.00 0.20 0.00 87 1002.8
20260507050556 54 279 0.0 6.1 0.00 0.20 0.00 87 1002.6
20260507050056 54 296 0.9 7.0 0.00 0.20 0.00 88 1002.6
20260507045555 54 288 1.7 7.0 0.00 0.20 0.00 87 1002.6
20260507045055 54 272 0.0 7.0 0.00 0.20 0.00 88 1002.3
20260507044557 54 254 0.0 7.8 0.00 0.20 0.00 87 1002.3
20260507044056 55 285 3.5 8.7 0.00 0.20 0.00 87 1002.3
20260507043551 55 298 3.5 8.7 0.00 0.20 0.00 87 1002.6
20260507043052 56 311 2.6 10.4 0.00 0.20 0.00 88 1002.6
20260507042547 56 281 2.6 7.8 0.00 0.20 0.00 89 1002.6
20260507042046 57 318 2.6 7.8 0.00 0.20 0.20 89 1002.5
20260507041545 57 280 3.5 7.8 0.00 0.20 0.20 89 1002.5
20260507041044 58 275 2.6 7.8 0.00 0.20 0.20 89 1002.5
20260507040542 59 307 2.6 7.8 0.00 0.20 0.20 91 1002.0
20260507040042 59 217 0.0 4.3 0.00 0.20 0.20 91 1002.0
20260507035541 59 249 0.0 4.3 0.00 0.20 0.20 91 1002.0
20260507035041 59 244 0.9 4.3 0.00 0.20 0.20 91 1001.8
20260507034540 59 221 0.0 8.7 0.00 0.20 0.20 91 1001.8
20260507034039 60 302 2.6 8.7 0.00 0.20 0.20 91 1001.8
20260507033539 60 269 2.6 10.4 0.00 0.20 0.20 92 1001.6
20260507033038 60 200 0.0 7.0 0.00 0.20 0.20 92 1001.6
20260507032538 60 279 0.9 5.2 0.00 0.20 0.20 92 1001.6
20260507032039 60 231 0.0 8.7 0.00 0.20 0.20 92 1001.3
20260507031538 60 236 3.5 8.7 0.00 0.20 0.20 91 1001.3
20260507031037 60 219 2.6 8.7 0.00 0.20 0.20 91 1001.3
20260507030537 60 218 3.5 8.7 0.00 0.20 0.20 91 1001.3
20260507030038 60 216 2.6 8.7 0.00 0.20 0.20 91 1001.3
20260507025537 60 222 2.6 7.0 0.00 0.20 0.20 91 1001.3
20260507025039 60 225 1.7 8.7 0.00 0.20 0.20 91 1001.5
20260507024535 60 223 1.7 8.7 0.00 0.20 0.20 91 1001.5
20260507024034 60 233 0.0 8.7 0.00 0.20 0.20 91 1001.5
20260507023534 60 184 2.6 7.8 0.00 0.20 0.20 91 1001.4
20260507023036 60 217 0.9 6.1 0.00 0.20 0.20 91 1001.4
20260507022534 60 215 0.9 7.0 0.00 0.20 0.20 91 1001.4
20260507022034 60 187 3.5 7.8 0.00 0.20 0.20 91 1001.4
20260507021539 60 206 2.6 7.8 0.00 0.20 0.20 91 1001.4
20260507021033 60 190 0.9 10.4 0.00 0.20 0.20 91 1001.4
20260507020533 60 190 3.5 8.7 0.00 0.20 0.20 91 1001.6
20260507020035 60 178 0.9 13.0 0.00 0.20 0.20 91 1001.6
20260507015535 60 204 1.7 13.0 0.00 0.20 0.20 91 1001.6
20260507015034 59 257 2.6 7.0 0.01 0.20 0.20 91 1001.6
20260507014531 60 207 1.7 7.8 0.01 0.20 0.20 91 1001.6
20260507014031 60 192 1.7 9.6 0.01 0.20 0.20 91 1001.6
20260507013530 60 204 3.5 9.6 0.01 0.20 0.20 91 1001.7
20260507013030 60 226 0.9 8.7 0.01 0.20 0.20 91 1001.7
20260507012534 59 215 3.5 10.4 0.01 0.20 0.20 91 1001.7
20260507012030 59 200 3.5 8.7 0.01 0.20 0.20 91 1001.7
20260507011534 60 185 3.5 8.7 0.01 0.20 0.20 91 1001.7
20260507011028 60 187 0.9 7.0 0.01 0.20 0.20 91 1001.7
20260507010530 60 174 1.7 7.0 0.01 0.20 0.20 91 1001.7
20260507010038 60 184 2.6 12.2 0.01 0.20 0.20 91 1001.7
20260507005528 60 209 5.2 12.2 0.01 0.20 0.20 91 1001.7
20260507005026 60 178 3.5 9.6 0.00 0.19 0.19 91 1001.7
20260507004529 60 198 2.6 7.8 0.00 0.19 0.19 91 1001.7
20260507004026 60 183 2.6 8.7 0.01 0.19 0.19 91 1001.7
20260507003525 60 189 3.5 8.7 0.01 0.19 0.19 91 1001.7
20260507003025 60 213 2.6 9.6 0.03 0.19 0.19 91 1001.7
20260507002524 60 201 3.5 12.2 0.05 0.19 0.19 91 1001.7
20260507002028 60 207 3.5 7.8 0.05 0.19 0.19 91 1001.5
20260507001523 60 189 2.6 7.8 0.05 0.19 0.19 91 1001.5
20260507001022 60 183 2.6 9.6 0.06 0.19 0.19 91 1001.5
20260507000522 60 186 2.6 7.0 0.06 0.19 0.19 91 1001.6
20260507000023 60 195 0.9 7.8 0.07 0.19 0.19 91 1001.6
20260506235522 60 169 2.6 7.8 0.07 0.19 0.19 91 1001.6
20260506235021 60 165 3.5 7.0 0.07 0.19 0.19 91 1001.5
20260506234521 60 186 3.5 7.0 0.07 0.19 0.19 91 1001.5
20260506234021 60 184 1.7 8.7 0.06 0.18 0.18 91 1001.5
20260506233521 60 202 4.3 10.4 0.06 0.17 0.17 91 1001.5
20260506233022 60 194 3.5 12.2 0.04 0.15 0.15 91 1001.5
20260506232518 60 178 3.5 12.2 0.03 0.14 0.14 90 1001.5
20260506232018 60 205 4.3 12.2 0.03 0.14 0.14 90 1001.7
20260506231517 61 209 2.6 12.2 0.03 0.14 0.14 90 1001.7
20260506231020 61 237 2.6 8.7 0.02 0.13 0.13 90 1001.7
20260506230516 61 187 3.5 7.0 0.02 0.13 0.13 90 1001.8
20260506230024 61 209 3.5 7.8 0.01 0.12 0.12 90 1001.8
20260506225516 61 182 3.5 7.8 0.01 0.12 0.12 90 1001.8
20260506225016 61 228 2.6 13.9 0.01 0.12 0.12 90 1001.8
20260506224515 61 187 3.5 13.9 0.01 0.12 0.12 89 1001.8
20260506224013 61 198 2.6 10.4 0.01 0.12 0.12 89 1001.8
20260506223513 61 213 6.1 14.8 0.00 0.11 0.11 88 1001.8
20260506223013 61 181 7.0 14.8 0.01 0.11 0.11 89 1001.8
20260506222512 61 200 4.3 8.7 0.01 0.11 0.11 89 1001.8
20260506222014 61 195 4.3 11.3 0.01 0.11 0.11 89 1002.0
20260506221511 61 214 3.5 11.3 0.02 0.11 0.11 89 1002.0
20260506221010 61 174 3.5 12.2 0.02 0.11 0.11 89 1002.0
20260506220512 61 184 6.1 12.2 0.02 0.11 0.11 89 1002.2
20260506220015 61 177 4.3 9.6 0.03 0.11 0.11 89 1002.2
20260506215512 61 165 2.6 9.6 0.03 0.11 0.11 89 1002.2
20260506215008 61 169 3.5 13.9 0.03 0.11 0.11 89 1002.5
20260506214507 61 178 2.6 13.9 0.04 0.11 0.11 89 1002.5
20260506214006 61 187 4.3 8.7 0.05 0.11 0.11 89 1002.5
20260506213505 61 179 2.6 8.7 0.04 0.10 0.10 89 1002.5
20260506213006 61 188 3.5 12.2 0.04 0.10 0.10 89 1002.5
20260506212505 61 200 2.6 12.2 0.05 0.10 0.10 89 1002.5
20260506212003 61 200 5.2 11.3 0.07 0.10 0.10 88 1002.7
20260506211503 62 184 4.3 8.7 0.07 0.09 0.09 88 1002.7
20260506211003 62 204 3.5 9.6 0.07 0.09 0.09 88 1002.7
20260506210503 62 200 4.3 9.6 0.07 0.09 0.09 88 1002.8
20260506210002 62 185 3.5 13.0 0.06 0.08 0.08 88 1002.8
20260506205501 62 180 6.1 13.0 0.06 0.08 0.08 88 1002.8
20260506205001 62 172 1.7 7.8 0.07 0.08 0.08 87 1002.7
20260506204501 62 171 2.6 6.1 0.06 0.07 0.07 87 1002.7
20260506204100 63 188 0.0 6.1 0.05 0.06 0.06 86 1002.7
20260506203600 63 193 0.0 4.3 0.06 0.06 0.06 86 1002.7
20260506203100 63 196 0.0 5.2 0.06 0.06 0.06 85 1002.7
20260506202559 63 178 0.0 5.2 0.05 0.05 0.05 84 1002.7
20260506202059 64 183 0.9 8.7 0.03 0.03 0.03 84 1002.6
20260506201559 64 186 0.9 8.7 0.02 0.02 0.02 83 1002.6
20260506201058 64 176 3.5 7.8 0.02 0.02 0.02 82 1002.6
20260506200558 64 175 1.7 7.0 0.02 0.02 0.02 82 1002.7
20260506200057 64 155 1.7 6.1 0.02 0.02 0.02 82 1002.7
20260506195557 64 167 1.7 6.1 0.02 0.02 0.02 81 1002.7
20260506195057 65 178 0.0 4.3 0.01 0.01 0.01 80 1002.8
20260506194556 65 153 0.0 3.5 0.01 0.01 0.01 79 1002.8
20260506194055 66 163 0.0 3.5 0.01 0.01 0.01 77 1002.8
20260506193556 67 155 0.0 9.6 0.00 0.00 0.00 76 1002.7
20260506193055 68 134 2.6 13.0 0.00 0.00 0.00 73 1002.7
20260506192556 68 173 4.3 13.0 0.00 0.00 0.00 72 1002.7
20260506192055 68 213 3.5 13.0 0.00 0.00 0.00 70 1002.7
20260506191602 68 241 3.5 13.0 0.00 0.00 0.00 70 1002.7
20260506191055 68 223 3.5 11.3 0.00 0.00 0.00 72 1002.7
20260506190555 68 170 3.5 11.3 0.00 0.00 0.00 71 1002.7
20260506190056 68 182 0.0 8.7 0.00 0.00 0.00 71 1002.7
20260506185554 68 166 2.6 8.7 0.00 0.00 0.00 70 1002.7
20260506185054 68 154 1.7 8.7 0.00 0.00 0.00 70 1002.7
20260506184610 69 178 1.7 8.7 0.00 0.00 0.00 69 1002.7
20260506184053 69 183 0.9 9.6 0.00 0.00 0.00 68 1002.7
20260506183558 70 170 1.7 12.2 0.00 0.00 0.00 67 1002.6
20260506183053 71 159 2.6 12.2 0.00 0.00 0.00 65 1002.6
20260506182553 71 193 3.5 13.9 0.00 0.00 0.00 64 1002.6
20260506182052 71 168 2.6 13.9 0.00 0.00 0.00 64 1002.9
20260506181553 71 173 6.1 15.6 0.00 0.00 0.00 63 1002.9
20260506181053 72 165 5.2 15.6 0.00 0.00 0.00 64 1002.9
20260506180552 71 176 3.5 10.4 0.00 0.00 0.00 64 1003.1
20260506180052 72 170 2.6 13.9 0.00 0.00 0.00 63 1003.1
20260506175552 72 196 3.5 13.9 0.00 0.00 0.00 63 1003.1
20260506175051 72 149 2.6 16.5 0.00 0.00 0.00 63 1003.0
20260506174551 72 150 3.5 16.5 0.00 0.00 0.00 63 1003.0
20260506174051 73 173 3.5 13.9 0.00 0.00 0.00 62 1003.0
20260506173551 74 141 3.5 13.9 0.00 0.00 0.00 61 1003.2
20260506173050 74 150 3.5 14.8 0.00 0.00 0.00 61 1003.2
20260506172549 73 186 5.2 14.8 0.00 0.00 0.00 62 1003.2
20260506172048 72 207 4.3 11.3 0.00 0.00 0.00 63 1003.3
20260506171557 72 177 1.7 10.4 0.00 0.00 0.00 64 1003.3
20260506171047 72 181 4.3 12.2 0.00 0.00 0.00 63 1003.3
20260506170547 72 151 3.5 12.2 0.00 0.00 0.00 63 1003.4
20260506170051 72 138 2.6 7.0 0.00 0.00 0.00 63 1003.4
20260506165546 72 172 0.9 9.6 0.00 0.00 0.00 64 1003.4
20260506165046 72 192 2.6 7.8 0.00 0.00 0.00 63 1003.6
20260506164548 72 168 0.9 7.8 0.00 0.00 0.00 63 1003.6
20260506164045 72 200 2.6 6.1 0.00 0.00 0.00 63 1003.6
20260506163544 72 182 0.0 12.2 0.00 0.00 0.00 63 1003.8
20260506163045 72 172 3.5 13.9 0.00 0.00 0.00 62 1003.8
20260506162544 72 192 4.3 13.9 0.00 0.00 0.00 63 1003.8
20260506162043 72 173 0.9 11.3 0.00 0.00 0.00 63 1004.2
20260506161544 72 196 3.5 13.0 0.00 0.00 0.00 63 1004.2
20260506161043 72 180 1.7 17.4 0.00 0.00 0.00 63 1004.2
20260506160542 72 176 5.2 17.4 0.00 0.00 0.00 62 1004.5
20260506160057 72 219 4.3 12.2 0.00 0.00 0.00 63 1004.5
20260506155541 72 191 1.7 9.6 0.00 0.00 0.00 63 1004.5
20260506155041 72 185 0.9 11.3 0.00 0.00 0.00 64 1004.8
20260506154541 72 205 3.5 14.8 0.00 0.00 0.00 63 1004.8
20260506154041 72 188 4.3 14.8 0.00 0.00 0.00 63 1004.8
20260506153544 72 177 3.5 14.8 0.00 0.00 0.00 64 1004.9
20260506153041 72 178 2.6 15.6 0.00 0.00 0.00 63 1004.9
20260506152544 72 184 5.2 15.6 0.00 0.00 0.00 63 1004.9
20260506152040 72 171 4.3 13.9 0.00 0.00 0.00 64 1005.2
20260506151542 72 189 4.3 13.0 0.00 0.00 0.00 63 1005.2
20260506151038 71 245 2.6 13.0 0.00 0.00 0.00 66 1005.2
20260506150537 71 169 2.6 10.4 0.00 0.00 0.00 67 1005.0
20260506150038 71 171 3.5 13.9 0.00 0.00 0.00 66 1005.0
20260506145536 71 212 4.3 13.9 0.00 0.00 0.00 66 1005.0
20260506145036 71 181 3.5 9.6 0.00 0.00 0.00 66 1004.9
20260506144546 70 261 1.7 15.6 0.00 0.00 0.00 67 1004.9
20260506144035 70 186 3.5 16.5 0.00 0.00 0.00 67 1004.9
20260506143534 70 180 3.5 16.5 0.00 0.00 0.00 67 1004.7
20260506143035 70 192 5.2 18.2 0.00 0.00 0.00 67 1004.7
20260506142532 70 196 3.5 12.2 0.00 0.00 0.00 68 1004.7
20260506142032 70 180 4.3 12.2 0.00 0.00 0.00 68 1004.9
20260506141530 69 193 2.6 12.2 0.00 0.00 0.00 68 1004.9
20260506141030 69 194 5.2 14.8 0.00 0.00 0.00 69 1004.9
20260506140529 69 180 4.3 10.4 0.00 0.00 0.00 69 1005.0
20260506140033 68 225 2.6 13.0 0.00 0.00 0.00 69 1005.0
20260506135530 68 166 4.3 13.0 0.00 0.00 0.00 69 1005.0
20260506135027 68 172 4.3 11.3 0.00 0.00 0.00 69 1005.4
20260506134525 68 182 2.6 9.6 0.00 0.00 0.00 70 1005.4
20260506134027 68 178 3.5 10.4 0.00 0.00 0.00 70 1005.4
20260506133524 67 175 2.6 14.8 0.00 0.00 0.00 70 1005.4
20260506133030 67 232 5.2 14.8 0.00 0.00 0.00 69 1005.4
20260506132527 67 200 4.3 10.4 0.00 0.00 0.00 70 1005.4
20260506132023 67 229 5.2 13.0 0.00 0.00 0.00 71 1005.4
20260506131523 67 206 3.5 13.0 0.00 0.00 0.00 71 1005.4
20260506131027 67 200 2.6 13.0 0.00 0.00 0.00 71 1005.4
20260506130523 67 162 4.3 13.9 0.00 0.00 0.00 71 1005.4
20260506130023 67 194 5.2 14.8 0.00 0.00 0.00 71 1005.4
20260506125521 67 232 5.2 14.8 0.00 0.00 0.00 72 1005.4
20260506125022 66 198 5.2 12.2 0.00 0.00 0.00 72 1005.6
20260506124522 66 211 3.5 9.6 0.00 0.00 0.00 73 1005.6
20260506124018 65 196 4.3 13.0 0.00 0.00 0.00 73 1005.6
20260506123518 65 200 2.6 15.6 0.00 0.00 0.00 73 1005.6
20260506123018 65 209 6.1 15.6 0.00 0.00 0.00 73 1005.6
20260506122518 65 181 3.5 9.6 0.00 0.00 0.00 74 1005.6
20260506122021 65 208 4.3 11.3 0.00 0.00 0.00 73 1005.6
20260506121517 64 184 6.1 12.2 0.00 0.00 0.00 74 1005.6
20260506121017 64 186 3.5 7.8 0.00 0.00 0.00 74 1005.6
20260506120520 64 185 2.6 10.4 0.00 0.00 0.00 74 1005.8
20260506120019 64 202 5.2 10.4 0.00 0.00 0.00 74 1005.8
20260506115516 64 199 3.5 11.3 0.00 0.00 0.00 74 1005.8